Location: Unspecified
(35.7250°N, 0.0000°E)
Time: 01:41:15
(UTC+00:00)

Vanguard 1 Rocket - All Passes

Search period start: 16 June 2019 00:00
Search period end: 26 June 2019 00:00
Orbit: 652 x 4224 km, 34.3° (Epoch: 14 June)

Date Brightness Start Highest point End Pass type
(mag) Time Alt. Az. Time Alt. Az. Time Alt. Az.
16 Jun - 14:58:44 10° S 15:11:03 19° SSE 15:19:47 10° ESE daylight
16 Jun - 17:24:33 10° SW 17:39:36 45° SSE 17:47:37 10° E daylight
16 Jun - 19:55:18 10° WSW 20:06:09 75° S 20:11:54 10° E visible
16 Jun - 22:24:55 10° W 22:31:21 65° SSW 22:35:47 10° ESE visible
17 Jun - 00:52:38 10° WSW 00:55:29 16° SSW 00:58:22 10° S night (unlit)
17 Jun - 13:50:41 10° SSE 13:57:31 12° SE 14:03:22 10° SE daylight
17 Jun - 16:10:48 10° SSW 16:27:02 35° SSE 16:36:25 10° E daylight
17 Jun - 18:40:51 10° WSW 18:54:33 65° SSE 19:01:29 10° E daylight
17 Jun - 21:11:53 10° W 21:20:24 79° S 21:25:24 10° E visible
17 Jun - 23:40:16 10° W 23:44:54 31° SSW 23:48:49 10° SE visible
18 Jun - 14:58:02 10° SSW 15:13:57 27° SSE 15:24:18 10° E daylight
18 Jun - 17:26:10 10° SW 17:42:29 54° SSE 17:50:53 10° E daylight
18 Jun - 19:57:56 10° W 20:09:07 80° S 20:15:01 10° E visible
18 Jun - 22:27:49 10° W 22:34:17 54° SSW 22:38:44 10° ESE visible
19 Jun - 00:57:44 10° SW 00:58:15 10° SW 00:58:45 10° SSW night (unlit)
19 Jun - 13:47:11 10° S 14:00:24 19° SE 14:10:24 10° ESE daylight
19 Jun - 16:11:44 10° SW 16:29:53 44° SSE 16:39:52 10° E daylight
19 Jun - 18:43:11 10° WSW 18:57:29 74° S 19:04:36 10° E daylight
19 Jun - 21:14:40 10° W 21:23:24 74° S 21:28:28 10° ESE visible
19 Jun - 23:43:33 10° W 23:47:41 23° SSW 23:51:11 10° SSE visible
20 Jun - 12:42:33 10° SSE 12:46:30 11° SE 12:50:12 10° SE daylight
20 Jun - 14:58:08 10° SSW 15:16:44 34° SSE 15:28:11 10° E daylight
20 Jun - 17:28:02 10° WSW 17:45:21 64° SSE 17:54:01 10° E daylight
20 Jun - 20:00:36 10° W 20:12:07 82° S 20:18:08 10° E visible
20 Jun - 22:30:44 10° W 22:37:10 43° SSW 22:41:33 10° SE visible
21 Jun - 13:45:58 10° S 14:03:09 25° SE 14:15:16 10° E daylight
21 Jun - 16:13:02 10° SW 16:32:40 53° SSE 16:43:07 10° E daylight
21 Jun - 18:45:37 10° WSW 19:00:25 80° S 19:07:42 10° E daylight
21 Jun - 21:17:27 10° W 21:26:22 67° SSW 21:31:29 10° ESE visible
21 Jun - 23:47:11 10° WSW 23:50:21 16° SW 23:53:08 10° S visible
22 Jun - 12:36:30 10° S 12:49:15 17° SE 12:59:46 10° ESE daylight
22 Jun - 14:58:46 10° SSW 15:19:26 43° SSE 15:31:40 10° E daylight
22 Jun - 17:30:06 10° WSW 17:48:13 72° SSE 17:57:08 10° E daylight
22 Jun - 20:03:16 10° W 20:15:06 81° S 20:21:13 10° E visible
22 Jun - 22:33:44 10° W 22:39:56 33° SSW 22:44:12 10° SSE visible
23 Jun - 13:45:44 10° SSW 14:05:45 33° SE 14:19:18 10° E daylight
23 Jun - 16:14:38 10° SW 16:35:26 62° SSE 16:46:16 10° E daylight
23 Jun - 18:48:08 10° W 19:03:21 83° S 19:10:48 10° E daylight
23 Jun - 21:20:14 10° W 21:29:15 57° SSW 21:34:26 10° SE visible
23 Jun - 23:52:19 10° SW 23:52:55 10° SW 23:53:29 10° SW visible
24 Jun - 12:34:39 10° S 12:51:48 23° SE 13:05:14 10° E daylight
24 Jun - 14:59:48 10° SW 15:22:04 51° SSE 15:34:56 10° E daylight
24 Jun - 17:32:21 10° WSW 17:51:03 78° S 18:00:12 10° E daylight
24 Jun - 20:05:57 10° W 20:18:03 76° SSW 20:24:16 10° ESE visible
24 Jun - 22:36:53 10° W 22:42:34 25° SW 22:46:38 10° SSE visible
25 Jun - 11:27:35 10° SSE 11:37:47 14° SE 11:47:03 10° ESE daylight
25 Jun - 13:46:08 10° SSW 14:08:15 40° SSE 14:22:53 10° E daylight
25 Jun - 16:16:29 10° WSW 16:38:10 70° SSE 16:49:21 10° E daylight
25 Jun - 18:50:42 10° W 19:06:17 84° S 19:13:53 10° E daylight
25 Jun - 21:23:01 10° W 21:32:01 47° SSW 21:37:15 10° SE visible
